Location: Alpine
(43.1636°N, 111.0180°W)
Time: 04:39:36
(UTC+00:00)

Tiros 1 despin weight - Pass Details

Date: 29 May 2022
Orbit: 591 x 639 km, 48.2° (Epoch: 30 June)

Event Time Altitude Azimuth Distance (km) Brightness Sun altitude
Rises 05:31:15 0° 294° (WNW) 2,846 ? -20.4°
Reaches altitude 10° 05:33:33 10° 294° (WNW) 1,935 ? -20.6°
Maximum altitude 05:37:59 84° 208° (SSW) 600 ? -21.0°
Enters shadow 05:38:46 60° 127° (SE) 681 ? -21.0°
Drops below altitude 10° 05:42:23 10° 119° (ESE) 1,914 - -21.3°
Sets 05:44:39 0° 119° (ESE) 2,811 - -21.5°
